Weather History for Los Alamos, NM

Change the Weather History Date:

Monday, September 30, 2013

  Actual Average Record
Temperature  
Mean Temperature 61 °F -  
Max Temperature 73 °F 68 °F 81 °F (1980)
Min Temperature 49 °F 44 °F 25 °F (1985)
Degree Days  
Heating Degree Days 4    
Growing Degree Days 11 (Base 50)    
Moisture  
Dew Point 24 °F    
Average Humidity 25    
Maximum Humidity 36    
Minimum Humidity 17    
Precipitation  
Precipitation 0.00 in - - ()
Sea Level Pressure  
Sea Level Pressure 30.17 in    
Wind  
Wind Speed 2 mph (East)    
Max Wind Speed 14 mph    
Max Gust Speed 17 mph    
Visibility 10 miles    
Events      
Averages and records for this station are not official NWS values.
T = Trace of Precipitation, MM = Missing Value Source: NWS Daily Summary

Daily Weather History Graph

Daily Weather History Graph

Search for Another Location

Airport:

Trip Planner

Search our weather history database for the weather conditions in past years. The results will help you decide how hot, cold, wet, or windy it might be!

Date:

Astronomy

Sep. 30, 2013 Rise Set
Actual Time 6:59 AM MDT 6:49 PM MDT
Civil Twilight 6:34 AM MDT 7:15 PM MDT
Nautical Twilight 6:04 AM MDT 7:44 PM MDT
Astronomical Twilight 5:34 AM MDT 8:14 PM MDT
Moon 2:46 AM MDT (9/30) 4:15 PM MDT (9/30)
Length of Visible Light 12h 41m
Length of Day
11h 50m
Waning Crescent, 18% of the Moon is Illuminated
Sep 30
Waning Crescent
Oct 4
New
Oct 11
First Quarter
Oct 18
Full
Oct 26
Last Quarter

Hourly Weather History & Observations

Time (MDT) Temp. Dew Point Humidity Pressure Visibility Wind Dir Wind Speed Gust Speed Precip Events Conditions
12:15 AM 56.7 °F 20.8 °F 25% 30.24 in 10.0 mi NE 3.5 mph - N/A   Clear
12:35 AM 55.4 °F 21.2 °F 26% 30.24 in 10.0 mi Calm Calm - N/A   Clear
12:55 AM 55.0 °F 21.2 °F 27% 30.24 in 10.0 mi Calm Calm - N/A   Clear
1:15 AM 55.0 °F 20.8 °F 26% 30.23 in 10.0 mi NNW 3.5 mph - N/A   Clear
1:35 AM 54.9 °F 21.0 °F 27% 30.23 in 10.0 mi North 3.5 mph - N/A   Clear
1:55 AM 54.9 °F 20.8 °F 27% 30.23 in 10.0 mi Calm Calm - N/A   Clear
2:15 AM 54.9 °F 20.3 °F 26% 30.23 in 10.0 mi Calm Calm - N/A   Clear
2:35 AM 55.4 °F 19.6 °F 25% 30.22 in 10.0 mi Calm Calm - N/A   Clear
2:55 AM 55.0 °F 19.8 °F 25% 30.21 in 10.0 mi Calm Calm - N/A   Clear
3:15 AM 54.7 °F 19.6 °F 25% 30.21 in 10.0 mi Calm Calm - N/A   Clear
3:35 AM 54.0 °F 19.9 °F 26% 30.20 in 10.0 mi ENE 4.6 mph - N/A   Clear
3:55 AM 53.1 °F 20.5 °F 28% 30.20 in 10.0 mi Calm Calm - N/A   Clear
4:15 AM 53.4 °F 20.1 °F 27% 30.20 in 10.0 mi Calm Calm - N/A   Clear
4:35 AM 51.4 °F 21.2 °F 31% 30.20 in 10.0 mi Calm Calm - N/A   Clear
4:55 AM 51.8 °F 21.0 °F 30% 30.20 in 10.0 mi Calm Calm - N/A   Clear
5:15 AM 49.8 °F 21.7 °F 33% 30.20 in 10.0 mi Calm Calm - N/A   Clear
5:35 AM 50.2 °F 21.7 °F 33% 30.20 in 10.0 mi SW 4.6 mph - N/A   Clear
5:55 AM 51.1 °F 21.4 °F 31% 30.21 in 10.0 mi WSW 3.5 mph - N/A   Clear
6:15 AM 53.6 °F 20.1 °F 27% 30.21 in 10.0 mi West 3.5 mph - N/A   Clear
6:35 AM 53.2 °F 20.1 °F 27% 30.21 in 10.0 mi Calm Calm - N/A   Clear
6:55 AM 54.1 °F 19.2 °F 25% 30.21 in 10.0 mi Calm Calm - N/A   Clear
7:15 AM 53.6 °F 19.4 °F 26% 30.21 in 10.0 mi Calm Calm - N/A   Clear
7:35 AM 52.7 °F 20.7 °F 29% 30.21 in 10.0 mi Calm Calm - N/A   Clear
7:55 AM 52.0 °F 21.7 °F 31% 30.22 in 10.0 mi South 3.5 mph - N/A   Clear
8:15 AM 53.1 °F 20.8 °F 28% 30.21 in 10.0 mi South 3.5 mph - N/A   Clear
8:35 AM 54.7 °F 26.2 °F 33% 30.21 in 10.0 mi Calm Calm - N/A   Clear
8:55 AM 56.1 °F 24.3 °F 29% 30.21 in 10.0 mi Calm Calm - N/A   Clear
9:15 AM 57.4 °F 25.9 °F 30% 30.21 in 10.0 mi Calm Calm - N/A   Clear
9:35 AM 56.7 °F 29.8 °F 36% 30.21 in 10.0 mi Calm Calm - N/A   Clear
9:55 AM 57.2 °F 28.6 °F 34% 30.22 in 10.0 mi Calm Calm - N/A   Clear
10:15 AM 57.6 °F 29.8 °F 35% 30.22 in 10.0 mi Calm Calm - N/A   Clear
10:35 AM 58.8 °F 28.6 °F 32% 30.22 in 10.0 mi Calm Calm - N/A   Clear
10:55 AM 60.8 °F 27.9 °F 29% 30.21 in 10.0 mi Calm Calm - N/A   Clear
11:15 AM 62.1 °F 28.0 °F 28% 30.21 in 10.0 mi NE 4.6 mph - N/A   Clear
11:35 AM 63.0 °F 26.8 °F 25% 30.19 in 10.0 mi Calm Calm - N/A   Clear
11:55 AM 64.6 °F 27.5 °F 25% 30.19 in 10.0 mi East 4.6 mph - N/A   Clear
12:15 PM 65.1 °F 28.9 °F 26% 30.18 in 10.0 mi NE 4.6 mph - N/A   Clear
12:35 PM 66.6 °F 29.5 °F 25% 30.18 in 10.0 mi East 5.8 mph - N/A   Clear
12:55 PM 66.7 °F 28.4 °F 24% 30.17 in 10.0 mi ENE 5.8 mph - N/A   Clear
1:15 PM 68.0 °F 29.7 °F 24% 30.16 in 10.0 mi NE 3.5 mph - N/A   Clear
1:35 PM 68.5 °F 29.8 °F 24% 30.15 in 10.0 mi East 4.6 mph - N/A   Clear
1:55 PM 69.1 °F 28.9 °F 22% 30.15 in 10.0 mi NE 3.5 mph - N/A   Clear
2:15 PM 69.6 °F 30.2 °F 23% 30.14 in 10.0 mi NE 3.5 mph - N/A   Clear
2:35 PM 69.8 °F 28.0 °F 21% 30.13 in 10.0 mi Calm Calm - N/A   Clear
2:55 PM 70.9 °F 29.7 °F 22% 30.13 in 10.0 mi ESE 8.1 mph - N/A   Clear
3:15 PM 70.7 °F 28.8 °F 21% 30.12 in 10.0 mi SE 4.6 mph - N/A   Clear
3:35 PM 71.1 °F 28.9 °F 21% 30.11 in 10.0 mi ESE 4.6 mph - N/A   Clear
3:55 PM 71.8 °F 29.3 °F 21% 30.11 in 10.0 mi Calm Calm - N/A   Clear
4:15 PM 72.0 °F 29.3 °F 21% 30.11 in 10.0 mi ENE 4.6 mph - N/A   Clear
4:35 PM 73.0 °F 30.0 °F 20% 30.10 in 10.0 mi ESE 3.5 mph - N/A   Clear
4:55 PM 72.3 °F 29.1 °F 20% 30.10 in 10.0 mi Calm Calm - N/A   Clear
5:15 PM 73.0 °F 29.5 °F 20% 30.10 in 10.0 mi Calm Calm - N/A   Clear
5:35 PM 72.9 °F 29.1 °F 20% 30.10 in 10.0 mi East 3.5 mph - N/A   Clear
5:55 PM 72.5 °F 28.2 °F 19% 30.10 in 10.0 mi ESE 3.5 mph - N/A   Clear
6:15 PM 72.1 °F 28.2 °F 20% 30.10 in 10.0 mi Calm Calm - N/A   Clear
6:35 PM 71.6 °F 28.8 °F 20% 30.10 in 10.0 mi Calm Calm - N/A   Clear
6:55 PM 70.7 °F 28.9 °F 21% 30.11 in 10.0 mi Calm Calm - N/A   Clear
7:15 PM 69.3 °F 24.1 °F 18% 30.11 in 10.0 mi NW 5.8 mph - N/A   Clear
7:35 PM 68.9 °F 24.6 °F 19% 30.11 in 10.0 mi WSW 8.1 mph - N/A   Clear
7:55 PM 68.2 °F 21.2 °F 17% 30.12 in 10.0 mi WSW 8.1 mph - N/A   Clear
8:15 PM 67.3 °F 20.5 °F 17% 30.13 in 10.0 mi West 13.8 mph 17.3 mph N/A   Clear
8:35 PM 66.7 °F 19.9 °F 17% 30.13 in 10.0 mi West 8.1 mph - N/A   Clear
8:55 PM 66.6 °F 20.1 °F 17% 30.13 in 10.0 mi NW 6.9 mph - N/A   Clear
9:15 PM 66.6 °F 20.7 °F 17% 30.13 in 10.0 mi West 8.1 mph - N/A   Clear
9:35 PM 65.8 °F 21.0 °F 18% 30.14 in 10.0 mi West 3.5 mph - N/A   Clear
9:55 PM 64.9 °F 21.2 °F 19% 30.14 in 10.0 mi Calm Calm - N/A   Clear
10:15 PM 64.8 °F 21.4 °F 19% 30.15 in 10.0 mi Calm Calm - N/A   Clear
10:35 PM 63.3 °F 22.1 °F 21% 30.14 in 10.0 mi SE 3.5 mph - N/A   Clear
10:55 PM 62.2 °F 22.1 °F 21% 30.14 in 10.0 mi SE 3.5 mph - N/A   Clear
11:15 PM 62.2 °F 21.2 °F 21% 30.14 in 10.0 mi Calm Calm - N/A   Clear
11:35 PM 61.9 °F 21.6 °F 21% 30.14 in 10.0 mi Calm Calm - N/A   Clear
11:55 PM 61.9 °F 21.4 °F 21% 30.14 in 10.0 mi Calm Calm - N/A   Clear